Tracking 28790 objects as of 18-Apr-2024
HD Live streaming from Space Station
objects crossing your sky now

COSMOS 1275 DEB

Track COSMOS 1275 DEB now!
10-day predictions


NORAD ID: 42097
Int'l Code: 1981-053PH
Perigee: 801.0 km
Apogee: 890.7 km
Inclination: 82.8 °
Period: 101.7 minutes
Semi major axis: 7216 km
RCS: Unknown
Launch date: June 4, 1981
Source: Commonwealth of Independent States (former USSR) (CIS)
Launch site: PLESETSK MISSILE AND SPACE COMPLEX (PKMTR)

Note: This is SATELLITE DEBRIS
Your satellite tracking list
Your tracking list is empty




NASA's NSSDC Master Catalog

Two Line Element Set (TLE):
1 42097U 81053PH  24099.26876514  .00003667  00000-0  18154-2 0  9995
2 42097  82.8059 291.8201 0062185 212.4711 147.2636 14.16063635 77119
Source of the keplerian elements: AFSPC